"Pseudo-MPEC" for P11Y50L

Created 2024 Sep 5 18:22:19 UT using Find_Orb

Click here for an explanation of pseudo-MPECs

 
 Astrometry: 
     P11Y50L* C2024 09 05.39713222 58 47.868-05 27 29.82   ~95Bq 20.70wXNEOCPF51
     P11Y50L  C2024 09 05.42389622 58 45.359-05 26 22.53   ~95Bq 20.77wXNEOCPF51
     P11Y50L  C2024 09 05.43723022 58 44.102-05 25 49.07   ~95Bq 20.74wXNEOCPF51

Station data:
(F51) Pan-STARRS 1, Haleakala  (N20.707234 W156.255910)  US/Hawaii.
   Observers J. Bulger, T. Lowe, A. Schultz, M. Willman. Measurers K.
   Chambers, S. Chastel, T. de Boer, L. Denneau, J. Fairlamb, H. Flewelling,
   M. Huber, C.-C. Lin, E. Magnier, Y. Ramanjooloo, R. Wainscoat, R. Weryk.
   1.8-m Ritchey-Chrétien + CCD.

Orbital elements:  P11Y50L
   Perihelion 2024 Nov 1.61791 +/- 48.7 TT = 14:49:47 (JD 2460616.11791)
Epoch 2024 Sep  5.0 TT = JDT 2460558.5   Earth MOID: 0.1793   Ma: 0.0259
M 339.07333380 +/- 19               (J2000 ecliptic)             AutoNEOCP
n   0.36319727 +/- 0.275            Peri.   53.39569 +/- 58
a   1.94554373 +/- 0.983            Node   342.14586 +/- 24
e   0.4259222 +/- 0.254             Incl.   11.38321 +/- 8
P   2.714/991.178d         H 22.90  G  0.15   U 11.9  SR
q 1.11689329 +/- 0.305    Q 2.77419417 +/- 49.2
From 3 observations 2024 Sept. 5 (57.7 min); mean residual 0".03
Residuals in arcseconds: 
240905 F51  .01-  .02-    240905 F51  .03+  .05+    240905 F51  .02-  .03-    

Ephemerides (geocentric):
Date (UTC) HH   RA             Dec           delta  r     elong  mag " sig PA
---- --------  ------------   ------------  ------ ------ -----  --- --------
2024 09 05 18  22 58 18.853   -05 12 22.85  .25430 1.2623 178.6 20.6  401 106
2024 09 05 19  22 58 15.465   -05 10 36.83  .25412 1.2621 178.6 20.6  462 106
2024 09 05 20  22 58 12.072   -05 08 50.65  .25394 1.2620 178.6 20.6  528 106
2024 09 05 21  22 58 08.674   -05 07 04.32  .25376 1.2618 178.6 20.6  601 106
2024 09 05 22  22 58 05.272   -05 05 17.82  .25358 1.2616 178.6 20.6  685 107
2024 09 05 23  22 58 01.865   -05 03 31.17  .25340 1.2614 178.5 20.6  781 108
2024 09 06 00  22 57 58.454   -05 01 44.36  .25322 1.2612 178.5 20.6  894 109
2024 09 06 01  22 57 55.038   -04 59 57.40  .25304 1.2610 178.5 20.6 1031 110
2024 09 06 02  22 57 51.618   -04 58 10.27  .25286 1.2608 178.5 20.6 1199 112
2024 09 06 03  22 57 48.193   -04 56 22.98  .25268 1.2606 178.4 20.6 1413 113
2024 09 06 04  22 57 44.763   -04 54 35.54  .25249 1.2604 178.4 20.6 1693 115
2024 09 06 05  22 57 41.328   -04 52 47.93  .25231 1.2602 178.4 20.6 2076 116
2024 09 06 06  22 57 37.888   -04 51 00.16  .25213 1.2600 178.3 20.6 2631 118
2024 09 06 07  22 57 34.444   -04 49 12.23  .25195 1.2598 178.3 20.6 3505 119
2024 09 06 08  22 57 30.995   -04 47 24.13  .25177 1.2596 178.3 20.6 5071 120
2024 09 06 09  22 57 27.541   -04 45 35.87  .25158 1.2594 178.2 20.6 8595 121
2024 09 06 10  22 57 24.082   -04 43 47.45  .25140 1.2592 178.2 20.6 352' 119
2024 09 06 11  22 57 20.618   -04 41 58.86  .25122 1.2590 178.2 20.6 854' 102
2024 09 06 12  22 57 17.149   -04 40 10.11  .25103 1.2588 178.1 20.6 993'  97
2024 09 06 13  22 57 13.675   -04 38 21.19  .25085 1.2586 178.1 20.6  17d  95
2024 09 06 14  22 57 10.196   -04 36 32.10  .25067 1.2584 178.0 20.6  18d  94
2024 09 06 15  22 57 06.712   -04 34 42.85  .25048 1.2582 178.0 20.6  18d  94
2024 09 06 16  22 57 03.222   -04 32 53.43  .25030 1.2580 178.0 20.6  18d  93
2024 09 06 17  22 56 59.728   -04 31 03.84  .25011 1.2578 177.9 20.6  18d  93
2024 09 06 18  22 56 56.229   -04 29 14.08  .24993 1.2576 177.9 20.6  18d  87
2024 09 06 19  22 56 52.724   -04 27 24.15  .24974 1.2574 177.8 20.6  18d  87
2024 09 06 20  22 56 49.214   -04 25 34.05  .24956 1.2572 177.8 20.6  18d  87
2024 09 06 21  22 56 45.699   -04 23 43.78  .24937 1.2570 177.7 20.6  18d  87
2024 09 06 22  22 56 42.178   -04 21 53.34  .24919 1.2568 177.7 20.6  18d  87
2024 09 06 23  22 56 38.652   -04 20 02.72  .24900 1.2566 177.6 20.6  18d  88
2024 09 07 00  22 56 35.121   -04 18 11.94  .24882 1.2564 177.6 20.6  18d  88
2024 09 07 01  22 56 31.584   -04 16 20.97  .24863 1.2562 177.6 20.6  18d  91
2024 09 07 02  22 56 28.042   -04 14 29.84  .24844 1.2560 177.5 20.6  22d  98
2024 09 07 03  22 56 24.495   -04 12 38.53  .24826 1.2558 177.5 20.6  24d  95
2024 09 07 04  22 56 20.942   -04 10 47.04  .24807 1.2556 177.4 20.6  25d  93
2024 09 07 05  22 56 17.383   -04 08 55.38  .24788 1.2554 177.4 20.6  25d  92
2024 09 07 06  22 56 13.819   -04 07 03.54  .24770 1.2552 177.3 20.6  25d  92
2024 09 07 07  22 56 10.250   -04 05 11.53  .24751 1.2550 177.3 20.6  25d  92
2024 09 07 08  22 56 06.676   -04 03 19.35  .24732 1.2548 177.2 20.6  26d  95
2024 09 07 09  22 56 03.097   -04 01 27.01  .24713 1.2546 177.2 20.6  30d  97
2024 09 07 10  22 55 59.514   -03 59 34.50  .24695 1.2544 177.1 20.6  31d  95
2024 09 07 11  22 55 55.927   -03 57 41.83  .24676 1.2542 177.1 20.6  31d  94
2024 09 07 12  22 55 52.335   -03 55 49.00  .24657 1.2540 177.0 20.6  31d  93
2024 09 07 13  22 55 48.738   -03 53 55.99  .24639 1.2538 177.0 20.6  31d  93
2024 09 07 14  22 55 45.137   -03 52 02.83  .24620 1.2535 176.9 20.6  31d  93
2024 09 07 15  22 55 41.531   -03 50 09.50  .24602 1.2533 176.9 20.6  31d  93
2024 09 07 16  22 55 37.921   -03 48 16.00  .24583 1.2531 176.8 20.6  31d  92
2024 09 07 17  22 55 34.306   -03 46 22.34  .24565 1.2529 176.8 20.6  31d  92